Regional Weather Roundup
Issued by NWS

Home | Current Version | Previous Version | Text Only | Print | Product List | Glossary Off
Versions: 1 2 3 4 5 6 7 8 9 10 11 12 13 14 15 16 17 18 19 20 21 22 23 24 25 26 27

000
ASUS45 KBOU 221906
RWRCO

WEATHER ROUNDUP FOR COLORADO
NATIONAL WEATHER SERVICE DENVER/BOULDER CO
100 PM MDT TUE APR 22 2014

NOTE: "FAIR" INDICATES FEW OR NO CLOUDS BELOW 12000 FEET WITH NO
SIGNIFICANT WEATHER AND/OR OBSTRUCTIONS TO VISIBILITY.

COZ001>005-013-030-031-222000-
...NORTHWEST COLORADO...

CITY           SKY/WX    TMP DP  RH WIND       PRES   REMARKS
CRAIG          PTSUNNY   71  34  25 S24G36    29.87F
HAYDEN         PTSUNNY   64  32  29 SW16G26   29.94F
MEEKER         PTSUNNY   72  30  21 SW22G36   29.89F
MOUNT WERNER   CLOUDY    46  23  39 SW16G40   30.16R
STEAMBOAT SPGS CLOUDY    62  25  24 S6        29.95R
WALDEN         CLOUDY    59  25  27 S29G39    29.99F
$$

COZ006>008-011-222000-
...WEST CENTRAL VALLEYS...

CITY           SKY/WX    TMP DP  RH WIND       PRES   REMARKS
GRAND JUNCTION PTSUNNY   75  26  16 SW33G43   29.85F
MONTROSE       CLOUDY    72  30  21 SW20G30   29.93F
EAGLE          PTSUNNY   66  30  26 SW21G26   29.97F
RIFLE          PTSUNNY   68  35  29 VRB5      29.87F
DELTA          NOT AVBL
NUCLA          NOT AVBL
$$

COZ017>023-064>068-222000-
...SOUTHWEST COLORADO...

CITY           SKY/WX    TMP DP  RH WIND       PRES   REMARKS
DURANGO        MOSUNNY   70  29  21 S10G16    30.05F
CORTEZ         MOSUNNY   76  28  17 SW17G33   29.99F
PAGOSA SPRINGS LGT RAIN  58  36  43 W17G29    30.12F
TELLURIDE      CLOUDY    57  25  28 S18G26    30.12F
WOLF CREEK PAS PTSUNNY   37  30  75 SW24G33   30.29F
$$

COZ009-010-012-014-032>034-037-058>063-222000-
...CENTRAL COLORADO...

CITY           SKY/WX    TMP DP  RH WIND       PRES   REMARKS
ASPEN          PTSUNNY   56  32  40 CALM      30.04F
BUENA VISTA    PTSUNNY   60  32  35 SE29G37   30.06F
COPPER MTN     PTSUNNY   45  21  39 SW14G25   30.25F
BERTHOUD PASS  FAIR      37  30  75 MISG      30.27F
COTTONWOOD PAS CLOUDY    54  23  30 S22G35    30.14F
GUNNISON       PTSUNNY   63  28  27 W10G17    30.07F
KREMMLING      PTSUNNY   64  25  22 SW12G18   29.99F
LEADVILLE      PTSUNNY   50  24  36 SW12G18   30.12F
MONARCH PASS   CLOUDY    41  27  56 SW29G37   30.35F
SALIDA         CLOUDY    67  30  25 S10G21    30.10F
SUNLIGHT       PTSUNNY   50  30  46 CALM      30.17F
WILKERSON PASS PTSUNNY   50  25  37 SW9G18    30.25F
$$

COZ069>075-222000-
...SAN LUIS VALLEY/SANGRE DE CRISTO MOUNTAINS...

CITY           SKY/WX    TMP DP  RH WIND       PRES   REMARKS
ALAMOSA        MOSUNNY   66  30  26 SW20G26   30.09F
LA VETA PASS   RAIN      43  32  65 SW7G20    30.23S
SAGUACHE       MOSUNNY   64  32  29 S7G16     30.09F
$$

COZ035-036-038>040-222000-
...NORTHERN COLORADO FRONT RANGE...

CITY           SKY/WX    TMP DP  RH WIND       PRES   REMARKS
DENVER INTL AP PTSUNNY   77  25  14 S12       29.87F
DMNS CITY PARK   N/A     77  28  16 SE13      29.84F
AURORA         PTSUNNY   75  27  16 W7        29.89F
FRONT RANGE AP NOT AVBL
ERIE MUNI ARPT MOSUNNY   76  38  24 SE10      29.84F
BOULDER MUN AP PTSUNNY   68  39  34 N3        29.86F
CENTENNIAL     PTSUNNY   75  29  18 SW12G17   29.89F
BROOMFIELD     PTSUNNY   75  30  19 E13G18    29.88F
FORT COLLINS   PTSUNNY   70  41  35 NE5       29.87F
LONGMONT       NOT AVBL
$$

COZ041-046-047-076>085-087-088-222000-
...PIKES PEAK/PALMER DIVIDE AND SOUTHERN FOOTHILLS...

CITY           SKY/WX    TMP DP  RH WIND       PRES   REMARKS
COLO. SPRINGS  PTSUNNY   75  26  16 SW17G30   29.95F
A. F. ACADEMY  LGT RAIN  72  28  20 SE12      29.96F
ELLICOTT       NOT AVBL
FALCON         MOSUNNY   70  30  22 S21G29    30.00F
FORT CARSON    MOSUNNY   75  33  21 S23G31    29.93F
LIMON          SUNNY     75  36  24 S16G25    29.92F
MONUMENT HILL  MOSUNNY   70  30  23 SW14G22   29.99F
TRINIDAD       SUNNY     75  38  26 S20G33    29.99F
$$

COZ042>045-048>051-090-091-222000-
...NORTHEAST COLORADO...

CITY           SKY/WX    TMP DP  RH WIND       PRES   REMARKS
GREELEY ARPT   MOSUNNY   72  41  33 S8        29.86F
AKRON          MOSUNNY   75  40  28 S16G26    29.87F
BURLINGTON     MOSUNNY   78  44  29 S29G40    29.92F
WRAY           PTSUNNY   78  39  25 S22       29.88F
STERLING       NOT AVBL
HOLYOKE        NOT AVBL
FORT MORGAN    NOT AVBL
$$

COZ086-089-092>099-222000-
...SOUTHEAST COLORADO...

CITY           SKY/WX    TMP DP  RH WIND       PRES   REMARKS
PUEBLO         PTSUNNY   74  39  28 SE7       29.90F
LA JUNTA       SUNNY     83  35  18 SW17G26   29.89F
LAMAR          MOSUNNY   83  41  22 SW16G28   29.87F
SPRINGFIELD      N/A     77  44  30 S37G45    29.97F
$$



USA.gov is the U.S. government's official web portal to all federal, state and local government web resources and services.